Weather in Teeli

Russia / Tyva Republic     51°00′54″N   90°12′08″E
temp.,
°C
wind,
m/s
gust,
m/s
humid.,
%
clouds,
%
prec.,
mm/h
press.,
hPa
HPBL,
m
1 august, sun
sun101:00+11ssw1175100 0.0 101511
04:00+10s117697 0.0 101410
07:00+12nnw00673 0.0 101457
10:00+16e11540 0.0 1012641
13:00+20e12411 0.0 10091160
16:00+23se223312 0.0 10071585
19:00+21ene454339 0.0 1007178
22:00+16ssw115194 0.0 101014
2 august, mon
mon201:00+14nnw11584 0.0 101011
04:00+11sw01685 0.0 101011
07:00+14sse00615 0.0 101154
10:00+18ene11505 0.0 1010541
13:00+22ene22396 0.0 10081151
16:00+24e213310 0.0 10061267
19:00+24e22423 0.0 100587
22:00+16nw11575 0.0 100811
3 august, tue
tue301:00+14sw11645 0.0 100912
04:00+13ssw11635 0.0 100911
07:00+16ssw01577 0.0 101040
10:00+20ne114695 0.0 1008461
13:00+25ne323657 0.0 1006845
16:00+27e21315 0.0 10041182
19:00+25e34428 0.0 1003120
22:00+20nw115281 0.0 100617
4 august, wed
wed401:00+15ssw017410 0.7 100811
04:00+13sw118123 0.0 100911
07:00+16ssw00743 0.0 100960
10:00+19ne22622 0.0 1008667
13:00+23ne324718 0.1 10051207
16:00+25ne22395 0.1 10031824
19:00+24ne574496 0.1 1002599
22:00+12se359293 11.4 1011155
5 august, thu
thu501:00+12sw118793 11.8 101011
04:00+11sse00902 0.0 100910
07:00+12e0083100 0.3 100959
10:00+15ene1177100 2.1 1008401
13:00+17nne22565 4.1 1007771
16:00+20nne22445 0.0 10051139
19:00+19e125237 0.3 1005695
22:00+13wsw228295 1.9 100727